This is the latest recevied weather packets stored in our database for station/object SA7AHC. If no packets are shown the sender has not sent any weather packets the latest 10 day(s).
| Time | Temp. | Humidity | Pressure | Rain* | Wind** | Luminosity | Snow |
|---|---|---|---|---|---|---|---|
| 1778066720 | 12.22° C | 41% | 1013 hPa | 0 mm | - | 279 W/m² | - |
| 1778066122 | 12.78° C | 43% | 1013.1 hPa | 0 mm | - | 334 W/m² | - |
| 1778065532 | 12.22° C | 41% | 1013.1 hPa | 0 mm | - | 353 W/m² | - |
| 1778064912 | 12.22° C | 42% | 1013.1 hPa | 0 mm | - | 482 W/m² | - |
| 1778064313 | 12.22° C | 39% | 1013.2 hPa | 0 mm | - | 497 W/m² | - |
| 1778063713 | 12.22° C | 43% | 1013.4 hPa | 0 mm | - | 613 W/m² | - |
| 1778063108 | 11.67° C | 44% | 1013.3 hPa | 0 mm | - | 582 W/m² | - |
| 1778062513 | 11.11° C | 44% | 1013.2 hPa | 0 mm | - | 503 W/m² | - |
| 1778061905 | 11.11° C | 43% | 1013.2 hPa | 0 mm | - | 338 W/m² | - |
| 1778061308 | 11.11° C | 45% | 1013.2 hPa | 0 mm | - | 397 W/m² | - |
| 1778060707 | 11.11° C | 42% | 1013.1 hPa | 0 mm | - | 397 W/m² | - |
| 1778060107 | 11.67° C | 42% | 1013 hPa | 0 mm | - | 480 W/m² | - |
| 1778059507 | 11.67° C | 45% | 1013 hPa | 0 mm | - | 388 W/m² | - |
| 1778058909 | 11.67° C | 45% | 1013.2 hPa | 0 mm | - | 649 W/m² | - |
| 1778058307 | 11.11° C | 44% | 1013.3 hPa | 0 mm | - | 439 W/m² | - |
| 1778057709 | 11.11° C | 43% | 1013.3 hPa | 0 mm | - | 299 W/m² | - |
| 1778057108 | 11.11° C | 41% | 1013.3 hPa | 0 mm | - | 413 W/m² | - |
| 1778056507 | 11.11° C | 42% | 1013.3 hPa | 0 mm | - | 519 W/m² | - |
| 1778055906 | 10.56° C | 44% | 1013.2 hPa | 0 mm | - | 531 W/m² | - |
| 1778055306 | 10.56° C | 43% | 1013 hPa | 0 mm | - | 520 W/m² | - |
| 1778054706 | 10° C | 42% | 1013.1 hPa | 0 mm | - | 599 W/m² | - |
| 1778054107 | 10° C | 44% | 1013.1 hPa | 0 mm | - | 348 W/m² | - |
| 1778053506 | 10° C | 44% | 1013.1 hPa | 0 mm | - | 425 W/m² | - |
| 1778052907 | 9.44° C | 42% | 1013.1 hPa | 0 mm | - | 396 W/m² | - |
| 1778052301 | 8.89° C | 42% | 1013.1 hPa | 0 mm | - | 554 W/m² | - |
* Rain latest hour (hover to see other rain measurements)
** Current wind speed in m/s (hover to see current wind gust speed)